Year,Month,Day,Hour,Minute,Value (Times are PST for insolation in W/m^2)
2016,05,12,00,00,0.00
2016,05,12,00,01,0.00
2016,05,12,00,02,0.00
2016,05,12,00,03,0.00
2016,05,12,00,04,0.00
2016,05,12,00,05,0.00
2016,05,12,00,06,0.00
2016,05,12,00,07,0.00
2016,05,12,00,08,0.00
2016,05,12,00,09,0.00
2016,05,12,00,10,0.00
2016,05,12,00,11,0.00
2016,05,12,00,12,0.00
2016,05,12,00,13,0.00
2016,05,12,00,14,0.00
2016,05,12,00,15,0.00
2016,05,12,00,16,0.00
2016,05,12,00,17,0.00
2016,05,12,00,18,0.00
2016,05,12,00,19,0.00
2016,05,12,00,20,0.00
2016,05,12,00,21,0.00
2016,05,12,00,22,0.00
2016,05,12,00,23,0.00
2016,05,12,00,24,0.00
2016,05,12,00,25,0.00
2016,05,12,00,26,0.00
2016,05,12,00,27,0.00
2016,05,12,00,28,0.00
2016,05,12,00,29,0.00
2016,05,12,00,30,0.00
2016,05,12,00,31,0.00
2016,05,12,00,32,0.00
2016,05,12,00,33,0.00
2016,05,12,00,34,0.00
2016,05,12,00,35,0.00
2016,05,12,00,36,0.00
2016,05,12,00,37,0.00
2016,05,12,00,38,0.00
2016,05,12,00,39,0.00
2016,05,12,00,40,0.00
2016,05,12,00,41,0.00
2016,05,12,00,42,0.00
2016,05,12,00,43,0.00
2016,05,12,00,44,0.00
2016,05,12,00,45,0.00
2016,05,12,00,46,0.00
2016,05,12,00,47,0.00
2016,05,12,00,48,0.00
2016,05,12,00,49,0.00
2016,05,12,00,50,0.00
2016,05,12,00,51,0.00
2016,05,12,00,52,0.00
2016,05,12,00,53,0.00
2016,05,12,00,54,0.00
2016,05,12,00,55,0.00
2016,05,12,00,56,0.00
2016,05,12,00,57,0.00
2016,05,12,00,58,0.00
2016,05,12,00,59,0.00
2016,05,12,01,00,0.00
2016,05,12,01,01,0.00
2016,05,12,01,02,0.00
2016,05,12,01,03,0.00
2016,05,12,01,04,0.00
2016,05,12,01,05,0.00
2016,05,12,01,06,0.00
2016,05,12,01,07,0.00
2016,05,12,01,08,0.00
2016,05,12,01,09,0.00
2016,05,12,01,10,0.00
2016,05,12,01,11,0.00
2016,05,12,01,12,0.00
2016,05,12,01,13,0.00
2016,05,12,01,14,0.00
2016,05,12,01,15,0.00
2016,05,12,01,16,0.00
2016,05,12,01,17,0.00
2016,05,12,01,18,0.00
2016,05,12,01,19,0.00
2016,05,12,01,20,0.00
2016,05,12,01,21,0.00
2016,05,12,01,22,0.00
2016,05,12,01,23,0.00
2016,05,12,01,24,0.00
2016,05,12,01,25,0.00
2016,05,12,01,26,0.00
2016,05,12,01,27,0.00
2016,05,12,01,28,0.00
2016,05,12,01,29,0.00
2016,05,12,01,30,0.00
2016,05,12,01,31,0.00
2016,05,12,01,32,0.00
2016,05,12,01,33,0.00
2016,05,12,01,34,0.00
2016,05,12,01,35,0.00
2016,05,12,01,36,0.00
2016,05,12,01,37,0.00
2016,05,12,01,38,0.00
2016,05,12,01,39,0.00
2016,05,12,01,40,0.00
2016,05,12,01,41,0.00
2016,05,12,01,42,0.00
2016,05,12,01,43,0.00
2016,05,12,01,44,0.00
2016,05,12,01,45,0.00
2016,05,12,01,46,0.00
2016,05,12,01,47,0.00
2016,05,12,01,48,0.00
2016,05,12,01,49,0.00
2016,05,12,01,50,0.00
2016,05,12,01,51,0.00
2016,05,12,01,52,0.00
2016,05,12,01,53,0.00
2016,05,12,01,54,0.00
2016,05,12,01,55,0.00
2016,05,12,01,56,0.00
2016,05,12,01,57,0.00
2016,05,12,01,58,0.00
2016,05,12,01,59,0.00
2016,05,12,02,00,0.00
2016,05,12,02,01,0.00
2016,05,12,02,02,0.00
2016,05,12,02,03,0.00
2016,05,12,02,04,0.00
2016,05,12,02,05,0.00
2016,05,12,02,06,0.00
2016,05,12,02,07,0.00
2016,05,12,02,08,0.00
2016,05,12,02,09,0.00
2016,05,12,02,10,0.00
2016,05,12,02,11,0.00
2016,05,12,02,12,0.00
2016,05,12,02,13,0.00
2016,05,12,02,14,0.00
2016,05,12,02,15,0.00
2016,05,12,02,16,0.00
2016,05,12,02,17,0.00
2016,05,12,02,18,0.00
2016,05,12,02,19,0.00
2016,05,12,02,20,0.00
2016,05,12,02,21,0.00
2016,05,12,02,22,0.00
2016,05,12,02,23,0.00
2016,05,12,02,24,0.00
2016,05,12,02,25,0.00
2016,05,12,02,26,0.00
2016,05,12,02,27,0.00
2016,05,12,02,28,0.00
2016,05,12,02,29,0.00
2016,05,12,02,30,0.00
2016,05,12,02,31,0.00
2016,05,12,02,32,0.00
2016,05,12,02,33,0.00
2016,05,12,02,34,0.00
2016,05,12,02,35,0.00
2016,05,12,02,36,0.00
2016,05,12,02,37,0.00
2016,05,12,02,38,0.00
2016,05,12,02,39,0.00
2016,05,12,02,40,0.00
2016,05,12,02,41,0.00
2016,05,12,02,42,0.00
2016,05,12,02,43,0.00
2016,05,12,02,44,0.00
2016,05,12,02,45,0.00
2016,05,12,02,46,0.00
2016,05,12,02,47,0.00
2016,05,12,02,48,0.00
2016,05,12,02,49,0.00
2016,05,12,02,50,0.00
2016,05,12,02,51,0.00
2016,05,12,02,52,0.00
2016,05,12,02,53,0.00
2016,05,12,02,54,0.00
2016,05,12,02,55,0.00
2016,05,12,02,56,0.00
2016,05,12,02,57,0.00
2016,05,12,02,58,0.00
2016,05,12,02,59,0.00
2016,05,12,03,00,0.00
2016,05,12,03,01,0.00
2016,05,12,03,02,0.00
2016,05,12,03,03,0.00
2016,05,12,03,04,0.00
2016,05,12,03,05,0.00
2016,05,12,03,06,0.00
2016,05,12,03,07,0.00
2016,05,12,03,08,0.00
2016,05,12,03,09,0.00
2016,05,12,03,10,0.00
2016,05,12,03,11,0.00
2016,05,12,03,12,0.00
2016,05,12,03,13,0.00
2016,05,12,03,14,0.00
2016,05,12,03,15,0.00
2016,05,12,03,16,0.00
2016,05,12,03,17,0.00
2016,05,12,03,18,0.00
2016,05,12,03,19,0.00
2016,05,12,03,20,0.00
2016,05,12,03,21,0.00
2016,05,12,03,22,0.00
2016,05,12,03,23,0.00
2016,05,12,03,24,0.00
2016,05,12,03,25,0.00
2016,05,12,03,26,0.00
2016,05,12,03,27,0.00
2016,05,12,03,28,0.00
2016,05,12,03,29,0.00
2016,05,12,03,30,0.00
2016,05,12,03,31,0.00
2016,05,12,03,32,0.00
2016,05,12,03,33,0.00
2016,05,12,03,34,0.00
2016,05,12,03,35,0.00
2016,05,12,03,36,0.00
2016,05,12,03,37,0.00
2016,05,12,03,38,0.00
2016,05,12,03,39,0.00
2016,05,12,03,40,0.00
2016,05,12,03,41,0.00
2016,05,12,03,42,0.00
2016,05,12,03,43,0.00
2016,05,12,03,44,0.00
2016,05,12,03,45,0.00
2016,05,12,03,46,0.00
2016,05,12,03,47,0.00
2016,05,12,03,48,0.00
2016,05,12,03,49,0.00
2016,05,12,03,50,0.00
2016,05,12,03,51,0.00
2016,05,12,03,52,0.00
2016,05,12,03,53,0.00
2016,05,12,03,54,0.00
2016,05,12,03,55,0.00
2016,05,12,03,56,0.00
2016,05,12,03,57,0.00
2016,05,12,03,58,0.00
2016,05,12,03,59,0.00
2016,05,12,04,00,0.00
2016,05,12,04,01,0.00
2016,05,12,04,02,0.00
2016,05,12,04,03,0.00
2016,05,12,04,04,0.00
2016,05,12,04,05,0.00
2016,05,12,04,06,0.00
2016,05,12,04,07,0.00
2016,05,12,04,08,0.00
2016,05,12,04,09,0.00
2016,05,12,04,10,0.00
2016,05,12,04,11,0.00
2016,05,12,04,12,0.00
2016,05,12,04,13,0.00
2016,05,12,04,14,0.00
2016,05,12,04,15,0.00
2016,05,12,04,16,0.00
2016,05,12,04,17,0.00
2016,05,12,04,18,0.00
2016,05,12,04,19,0.00
2016,05,12,04,20,0.00
2016,05,12,04,21,0.00
2016,05,12,04,22,0.00
2016,05,12,04,23,0.00
2016,05,12,04,24,0.00
2016,05,12,04,25,0.00
2016,05,12,04,26,0.00
2016,05,12,04,27,0.00
2016,05,12,04,28,0.00
2016,05,12,04,29,0.00
2016,05,12,04,30,0.00
2016,05,12,04,31,0.00
2016,05,12,04,32,0.00
2016,05,12,04,33,0.00
2016,05,12,04,34,0.00
2016,05,12,04,35,0.00
2016,05,12,04,36,0.00
2016,05,12,04,37,0.00
2016,05,12,04,38,0.00
2016,05,12,04,39,0.00
2016,05,12,04,40,0.00
2016,05,12,04,41,0.00
2016,05,12,04,42,0.00
2016,05,12,04,43,0.00
2016,05,12,04,44,0.00
2016,05,12,04,45,0.00
2016,05,12,04,46,0.00
2016,05,12,04,47,0.00
2016,05,12,04,48,0.00
2016,05,12,04,49,0.00
2016,05,12,04,50,0.00
2016,05,12,04,51,0.00
2016,05,12,04,52,0.00
2016,05,12,04,53,0.00
2016,05,12,04,54,0.00
2016,05,12,04,55,0.00
2016,05,12,04,56,0.00
2016,05,12,04,57,0.00
2016,05,12,04,58,0.00
2016,05,12,04,59,0.00
2016,05,12,05,00,0.00
2016,05,12,05,01,0.00
2016,05,12,05,02,0.00
2016,05,12,05,03,0.00
2016,05,12,05,04,0.00
2016,05,12,05,05,0.00
2016,05,12,05,06,0.00
2016,05,12,05,07,0.00
2016,05,12,05,08,0.00
2016,05,12,05,09,0.00
2016,05,12,05,10,0.00
2016,05,12,05,11,0.00
2016,05,12,05,12,0.00
2016,05,12,05,13,0.00
2016,05,12,05,14,0.00
2016,05,12,05,15,0.00
2016,05,12,05,16,0.00
2016,05,12,05,17,0.00
2016,05,12,05,18,0.00
2016,05,12,05,19,0.00
2016,05,12,05,20,0.00
2016,05,12,05,21,0.00
2016,05,12,05,22,0.00
2016,05,12,05,23,0.00
2016,05,12,05,24,0.00
2016,05,12,05,25,0.00
2016,05,12,05,26,0.00
2016,05,12,05,27,0.00
2016,05,12,05,28,0.00
2016,05,12,05,29,0.00
2016,05,12,05,30,0.00
2016,05,12,05,31,0.00
2016,05,12,05,32,0.00
2016,05,12,05,33,0.00
2016,05,12,05,34,0.00
2016,05,12,05,35,0.00
2016,05,12,05,36,0.00
2016,05,12,05,37,0.00
2016,05,12,05,38,0.00
2016,05,12,05,39,0.00
2016,05,12,05,40,0.00
2016,05,12,05,41,0.00
2016,05,12,05,42,0.00
2016,05,12,05,43,0.00
2016,05,12,05,44,0.00
2016,05,12,05,45,0.00
2016,05,12,05,46,0.00
2016,05,12,05,47,0.00
2016,05,12,05,48,0.00
2016,05,12,05,49,0.00
2016,05,12,05,50,0.00
2016,05,12,05,51,0.00
2016,05,12,05,52,0.00
2016,05,12,05,53,0.00
2016,05,12,05,54,0.00
2016,05,12,05,55,1.40
2016,05,12,05,56,5.00
2016,05,12,05,57,5.00
2016,05,12,05,58,5.00
2016,05,12,05,59,5.00
2016,05,12,06,00,5.10
2016,05,12,06,01,7.00
2016,05,12,06,02,7.00
2016,05,12,06,03,7.00
2016,05,12,06,04,7.00
2016,05,12,06,05,7.00
2016,05,12,06,06,7.00
2016,05,12,06,07,8.80
2016,05,12,06,08,9.00
2016,05,12,06,09,9.00
2016,05,12,06,10,9.00
2016,05,12,06,11,10.10
2016,05,12,06,12,11.00
2016,05,12,06,13,11.80
2016,05,12,06,14,12.00
2016,05,12,06,15,12.00
2016,05,12,06,16,12.00
2016,05,12,06,17,12.00
2016,05,12,06,18,13.10
2016,05,12,06,19,14.00
2016,05,12,06,20,14.00
2016,05,12,06,21,15.80
2016,05,12,06,22,16.00
2016,05,12,06,23,16.00
2016,05,12,06,24,16.90
2016,05,12,06,25,18.00
2016,05,12,06,26,18.70
2016,05,12,06,27,19.00
2016,05,12,06,28,19.00
2016,05,12,06,29,19.00
2016,05,12,06,30,19.00
2016,05,12,06,31,19.00
2016,05,12,06,32,19.00
2016,05,12,06,33,20.40
2016,05,12,06,34,22.60
2016,05,12,06,35,24.90
2016,05,12,06,36,25.00
2016,05,12,06,37,25.00
2016,05,12,06,38,25.00
2016,05,12,06,39,23.90
2016,05,12,06,40,23.00
2016,05,12,06,41,23.00
2016,05,12,06,42,23.20
2016,05,12,06,43,25.20
2016,05,12,06,44,27.10
2016,05,12,06,45,30.80
2016,05,12,06,46,32.50
2016,05,12,06,47,33.00
2016,05,12,06,48,34.60
2016,05,12,06,49,38.70
2016,05,12,06,50,40.40
2016,05,12,06,51,43.40
2016,05,12,06,52,49.60
2016,05,12,06,53,54.70
2016,05,12,06,54,57.40
2016,05,12,06,55,59.50
2016,05,12,06,56,61.80
2016,05,12,06,57,61.60
2016,05,12,06,58,60.00
2016,05,12,06,59,60.90
2016,05,12,07,00,63.70
2016,05,12,07,01,67.80
2016,05,12,07,02,69.00
2016,05,12,07,03,69.00
2016,05,12,07,04,70.80
2016,05,12,07,05,74.50
2016,05,12,07,06,77.20
2016,05,12,07,07,81.80
2016,05,12,07,08,88.30
2016,05,12,07,09,92.50
2016,05,12,07,10,93.10
2016,05,12,07,11,97.00
2016,05,12,07,12,107.90
2016,05,12,07,13,112.70
2016,05,12,07,14,108.70
2016,05,12,07,15,105.60
2016,05,12,07,16,104.20
2016,05,12,07,17,104.90
2016,05,12,07,18,106.60
2016,05,12,07,19,116.20
2016,05,12,07,20,122.60
2016,05,12,07,21,125.00
2016,05,12,07,22,122.30
2016,05,12,07,23,120.20
2016,05,12,07,24,120.90
2016,05,12,07,25,120.50
2016,05,12,07,26,118.60
2016,05,12,07,27,122.10
2016,05,12,07,28,129.10
2016,05,12,07,29,130.60
2016,05,12,07,30,123.00
2016,05,12,07,31,113.00
2016,05,12,07,32,103.30
2016,05,12,07,33,102.10
2016,05,12,07,34,110.90
2016,05,12,07,35,118.90
2016,05,12,07,36,125.80
2016,05,12,07,37,132.90
2016,05,12,07,38,134.90
2016,05,12,07,39,134.90
2016,05,12,07,40,140.90
2016,05,12,07,41,147.40
2016,05,12,07,42,152.70
2016,05,12,07,43,160.80
2016,05,12,07,44,164.60
2016,05,12,07,45,162.80
2016,05,12,07,46,152.90
2016,05,12,07,47,142.30
2016,05,12,07,48,136.60
2016,05,12,07,49,134.50
2016,05,12,07,50,139.80
2016,05,12,07,51,149.30
2016,05,12,07,52,161.70
2016,05,12,07,53,167.70
2016,05,12,07,54,171.30
2016,05,12,07,55,174.50
2016,05,12,07,56,177.00
2016,05,12,07,57,171.00
2016,05,12,07,58,172.80
2016,05,12,07,59,173.90
2016,05,12,08,00,170.70
2016,05,12,08,01,164.40
2016,05,12,08,02,167.50
2016,05,12,08,03,174.00
2016,05,12,08,04,178.50
2016,05,12,08,05,194.20
2016,05,12,08,06,248.40
2016,05,12,08,07,204.90
2016,05,12,08,08,187.80
2016,05,12,08,09,170.20
2016,05,12,08,10,170.60
2016,05,12,08,11,171.30
2016,05,12,08,12,162.10
2016,05,12,08,13,153.60
2016,05,12,08,14,153.00
2016,05,12,08,15,155.90
2016,05,12,08,16,165.00
2016,05,12,08,17,169.00
2016,05,12,08,18,164.30
2016,05,12,08,19,155.00
2016,05,12,08,20,154.70
2016,05,12,08,21,152.60
2016,05,12,08,22,150.40
2016,05,12,08,23,149.00
2016,05,12,08,24,150.10
2016,05,12,08,25,151.00
2016,05,12,08,26,151.00
2016,05,12,08,27,151.00
2016,05,12,08,28,150.60
2016,05,12,08,29,149.00
2016,05,12,08,30,150.70
2016,05,12,08,31,153.00
2016,05,12,08,32,153.00
2016,05,12,08,33,153.00
2016,05,12,08,34,153.00
2016,05,12,08,35,152.60
2016,05,12,08,36,151.00
2016,05,12,08,37,152.80
2016,05,12,08,38,159.00
2016,05,12,08,39,165.50
2016,05,12,08,40,170.20
2016,05,12,08,41,173.70
2016,05,12,08,42,173.10
2016,05,12,08,43,167.00
2016,05,12,08,44,162.00
2016,05,12,08,45,160.90
2016,05,12,08,46,158.60
2016,05,12,08,47,161.30
2016,05,12,08,48,165.00
2016,05,12,08,49,167.70
2016,05,12,08,50,173.20
2016,05,12,08,51,181.00
2016,05,12,08,52,188.80
2016,05,12,08,53,192.00
2016,05,12,08,54,190.50
2016,05,12,08,55,192.00
2016,05,12,08,56,195.90
2016,05,12,08,57,202.00
2016,05,12,08,58,206.40
2016,05,12,08,59,205.30
2016,05,12,09,00,204.00
2016,05,12,09,01,205.50
2016,05,12,09,02,206.90
2016,05,12,09,03,206.40
2016,05,12,09,04,202.60
2016,05,12,09,05,200.30
2016,05,12,09,06,204.60
2016,05,12,09,07,206.30
2016,05,12,09,08,210.10
2016,05,12,09,09,214.00
2016,05,12,09,10,218.00
2016,05,12,09,11,218.00
2016,05,12,09,12,217.00
2016,05,12,09,13,216.00
2016,05,12,09,14,220.70
2016,05,12,09,15,216.00
2016,05,12,09,16,209.50
2016,05,12,09,17,214.00
2016,05,12,09,18,212.30
2016,05,12,09,19,211.40
2016,05,12,09,20,223.10
2016,05,12,09,21,234.90
2016,05,12,09,22,229.30
2016,05,12,09,23,241.10
2016,05,12,09,24,255.90
2016,05,12,09,25,251.00
2016,05,12,09,26,259.20
2016,05,12,09,27,273.00
2016,05,12,09,28,274.60
2016,05,12,09,29,281.40
2016,05,12,09,30,295.00
2016,05,12,09,31,311.10
2016,05,12,09,32,330.40
2016,05,12,09,33,369.40
2016,05,12,09,34,392.70
2016,05,12,09,35,400.60
2016,05,12,09,36,397.50
2016,05,12,09,37,365.70
2016,05,12,09,38,328.70
2016,05,12,09,39,323.60
2016,05,12,09,40,327.00
2016,05,12,09,41,323.70
2016,05,12,09,42,303.40
2016,05,12,09,43,292.60
2016,05,12,09,44,284.20
2016,05,12,09,45,296.00
2016,05,12,09,46,320.00
2016,05,12,09,47,320.00
2016,05,12,09,48,596.00
2016,05,12,09,49,753.00
2016,05,12,09,50,728.00
2016,05,12,09,51,728.00
2016,05,12,09,52,656.00
2016,05,12,09,53,332.60
2016,05,12,09,54,336.30
2016,05,12,09,55,371.60
2016,05,12,09,56,345.50
2016,05,12,09,57,304.20
2016,05,12,09,58,263.50
2016,05,12,09,59,323.00
2016,05,12,10,00,323.00
2016,05,12,10,01,316.90
2016,05,12,10,02,341.10
2016,05,12,10,03,330.30
2016,05,12,10,04,315.00
2016,05,12,10,05,315.70
2016,05,12,10,06,330.00
2016,05,12,10,07,456.60
2016,05,12,10,08,703.00
2016,05,12,10,09,684.80
2016,05,12,10,10,693.70
2016,05,12,10,11,694.00
2016,05,12,10,12,570.00
2016,05,12,10,13,556.10
2016,05,12,10,14,576.80
2016,05,12,10,15,659.80
2016,05,12,10,16,683.50
2016,05,12,10,17,668.90
2016,05,12,10,18,654.00
2016,05,12,10,19,650.20
2016,05,12,10,20,650.40
2016,05,12,10,21,652.00
2016,05,12,10,22,654.90
2016,05,12,10,23,661.70
2016,05,12,10,24,665.30
2016,05,12,10,25,667.60
2016,05,12,10,26,667.70
2016,05,12,10,27,662.00
2016,05,12,10,28,668.00
2016,05,12,10,29,668.00
2016,05,12,10,30,669.20
2016,05,12,10,31,670.70
2016,05,12,10,32,672.60
2016,05,12,10,33,673.20
2016,05,12,10,34,677.40
2016,05,12,10,35,680.00
2016,05,12,10,36,681.70
2016,05,12,10,37,682.90
2016,05,12,10,38,683.40
2016,05,12,10,39,685.60
2016,05,12,10,40,688.70
2016,05,12,10,41,689.00
2016,05,12,10,42,690.60
2016,05,12,10,43,694.80
2016,05,12,10,44,697.10
2016,05,12,10,45,700.00
2016,05,12,10,46,701.00
2016,05,12,10,47,702.90
2016,05,12,10,48,705.00
2016,05,12,10,49,706.00
2016,05,12,10,50,708.00
2016,05,12,10,51,711.70
2016,05,12,10,52,714.00
2016,05,12,10,53,714.80
2016,05,12,10,54,715.00
2016,05,12,10,55,715.40
2016,05,12,10,56,718.60
2016,05,12,10,57,722.80
2016,05,12,10,58,724.00
2016,05,12,10,59,725.30
2016,05,12,11,00,727.50
2016,05,12,11,01,730.80
2016,05,12,11,02,733.40
2016,05,12,11,03,735.00
2016,05,12,11,04,735.90
2016,05,12,11,05,737.00
2016,05,12,11,06,739.00
2016,05,12,11,07,743.10
2016,05,12,11,08,744.00
2016,05,12,11,09,745.40
2016,05,12,11,10,747.70
2016,05,12,11,11,749.00
2016,05,12,11,12,750.10
2016,05,12,11,13,751.70
2016,05,12,11,14,755.30
2016,05,12,11,15,754.20
2016,05,12,11,16,754.80
2016,05,12,11,17,758.30
2016,05,12,11,18,759.90
2016,05,12,11,19,762.10
2016,05,12,11,20,764.40
2016,05,12,11,21,765.80
2016,05,12,11,22,767.90
2016,05,12,11,23,770.00
2016,05,12,11,24,770.80
2016,05,12,11,25,772.60
2016,05,12,11,26,773.70
2016,05,12,11,27,776.40
2016,05,12,11,28,775.40
2016,05,12,11,29,775.10
2016,05,12,11,30,777.40
2016,05,12,11,31,779.00
2016,05,12,11,32,780.30
2016,05,12,11,33,785.30
2016,05,12,11,34,786.60
2016,05,12,11,35,787.60
2016,05,12,11,36,789.00
2016,05,12,11,37,791.00
2016,05,12,11,38,792.10
2016,05,12,11,39,795.00
2016,05,12,11,40,795.60
2016,05,12,11,41,797.30
2016,05,12,11,42,799.60
2016,05,12,11,43,801.90
2016,05,12,11,44,802.80
2016,05,12,11,45,802.30
2016,05,12,11,46,803.80
2016,05,12,11,47,806.10
2016,05,12,11,48,807.00
2016,05,12,11,49,811.10
2016,05,12,11,50,810.30
2016,05,12,11,51,812.40
2016,05,12,11,52,813.40
2016,05,12,11,53,812.00
2016,05,12,11,54,813.20
2016,05,12,11,55,814.00
2016,05,12,11,56,816.30
2016,05,12,11,57,817.00
2016,05,12,11,58,817.00
2016,05,12,11,59,817.50
2016,05,12,12,00,819.00
2016,05,12,12,01,821.30
2016,05,12,12,02,821.60
2016,05,12,12,03,823.30
2016,05,12,12,04,827.50
2016,05,12,12,05,824.70
2016,05,12,12,06,828.00
2016,05,12,12,07,829.30
2016,05,12,12,08,830.40
2016,05,12,12,09,830.70
2016,05,12,12,10,832.50
2016,05,12,12,11,833.10
2016,05,12,12,12,835.00
2016,05,12,12,13,835.00
2016,05,12,12,14,835.80
2016,05,12,12,15,837.50
2016,05,12,12,16,839.40
2016,05,12,12,17,840.00
2016,05,12,12,18,840.10
2016,05,12,12,19,842.00
2016,05,12,12,20,841.30
2016,05,12,12,21,840.90
2016,05,12,12,22,844.20
2016,05,12,12,23,844.70
2016,05,12,12,24,844.00
2016,05,12,12,25,844.10
2016,05,12,12,26,846.20
2016,05,12,12,27,846.20
2016,05,12,12,28,844.80
2016,05,12,12,29,846.50
2016,05,12,12,30,847.00
2016,05,12,12,31,847.00
2016,05,12,12,32,848.80
2016,05,12,12,33,849.00
2016,05,12,12,34,849.60
2016,05,12,12,35,851.90
2016,05,12,12,36,853.00
2016,05,12,12,37,853.00
2016,05,12,12,38,853.00
2016,05,12,12,39,854.00
2016,05,12,12,40,855.60
2016,05,12,12,41,854.60
2016,05,12,12,42,856.00
2016,05,12,12,43,856.00
2016,05,12,12,44,856.00
2016,05,12,12,45,857.60
2016,05,12,12,46,858.00
2016,05,12,12,47,858.30
2016,05,12,12,48,860.30
2016,05,12,12,49,861.00
2016,05,12,12,50,862.00
2016,05,12,12,51,860.90
2016,05,12,12,52,860.00
2016,05,12,12,53,858.30
2016,05,12,12,54,860.00
2016,05,12,12,55,860.30
2016,05,12,12,56,861.00
2016,05,12,12,57,862.10
2016,05,12,12,58,861.60
2016,05,12,12,59,864.10
2016,05,12,13,00,865.00
2016,05,12,13,01,864.60
2016,05,12,13,02,863.60
2016,05,12,13,03,864.10
2016,05,12,13,04,864.10
2016,05,12,13,05,866.30
2016,05,12,13,06,865.40
2016,05,12,13,07,865.10
2016,05,12,13,08,867.00
2016,05,12,13,09,866.30
2016,05,12,13,10,866.30
2016,05,12,13,11,868.00
2016,05,12,13,12,868.00
2016,05,12,13,13,869.60
2016,05,12,13,14,870.00
2016,05,12,13,15,870.00
2016,05,12,13,16,870.60
2016,05,12,13,17,871.10
2016,05,12,13,18,870.00
2016,05,12,13,19,870.00
2016,05,12,13,20,868.40
2016,05,12,13,21,868.00
2016,05,12,13,22,868.00
2016,05,12,13,23,868.00
2016,05,12,13,24,868.00
2016,05,12,13,25,868.00
2016,05,12,13,26,867.30
2016,05,12,13,27,867.80
2016,05,12,13,28,868.00
2016,05,12,13,29,868.40
2016,05,12,13,30,870.00
2016,05,12,13,31,870.00
2016,05,12,13,32,870.00
2016,05,12,13,33,870.00
2016,05,12,13,34,870.00
2016,05,12,13,35,870.10
2016,05,12,13,36,871.70
2016,05,12,13,37,869.30
2016,05,12,13,38,868.00
2016,05,12,13,39,869.10
2016,05,12,13,40,868.70
2016,05,12,13,41,869.60
2016,05,12,13,42,871.70
2016,05,12,13,43,870.00
2016,05,12,13,44,869.40
2016,05,12,13,45,868.00
2016,05,12,13,46,869.00
2016,05,12,13,47,868.00
2016,05,12,13,48,867.80
2016,05,12,13,49,867.00
2016,05,12,13,50,867.20
2016,05,12,13,51,867.70
2016,05,12,13,52,867.00
2016,05,12,13,53,867.00
2016,05,12,13,54,867.00
2016,05,12,13,55,867.00
2016,05,12,13,56,866.90
2016,05,12,13,57,865.40
2016,05,12,13,58,867.00
2016,05,12,13,59,867.00
2016,05,12,14,00,867.00
2016,05,12,14,01,867.00
2016,05,12,14,02,867.80
2016,05,12,14,03,867.00
2016,05,12,14,04,865.00
2016,05,12,14,05,864.50
2016,05,12,14,06,863.00
2016,05,12,14,07,861.90
2016,05,12,14,08,862.40
2016,05,12,14,09,863.00
2016,05,12,14,10,861.20
2016,05,12,14,11,860.80
2016,05,12,14,12,860.00
2016,05,12,14,13,860.00
2016,05,12,14,14,858.90
2016,05,12,14,15,858.00
2016,05,12,14,16,856.50
2016,05,12,14,17,855.90
2016,05,12,14,18,853.80
2016,05,12,14,19,853.90
2016,05,12,14,20,854.80
2016,05,12,14,21,851.90
2016,05,12,14,22,852.30
2016,05,12,14,23,851.50
2016,05,12,14,24,851.00
2016,05,12,14,25,851.00
2016,05,12,14,26,850.50
2016,05,12,14,27,848.20
2016,05,12,14,28,847.00
2016,05,12,14,29,846.30
2016,05,12,14,30,844.50
2016,05,12,14,31,845.70
2016,05,12,14,32,843.70
2016,05,12,14,33,842.00
2016,05,12,14,34,841.20
2016,05,12,14,35,840.00
2016,05,12,14,36,840.00
2016,05,12,14,37,838.40
2016,05,12,14,38,838.00
2016,05,12,14,39,836.20
2016,05,12,14,40,833.00
2016,05,12,14,41,833.00
2016,05,12,14,42,831.90
2016,05,12,14,43,830.30
2016,05,12,14,44,830.00
2016,05,12,14,45,828.20
2016,05,12,14,46,828.00
2016,05,12,14,47,827.40
2016,05,12,14,48,826.00
2016,05,12,14,49,825.00
2016,05,12,14,50,823.30
2016,05,12,14,51,821.40
2016,05,12,14,52,821.00
2016,05,12,14,53,820.60
2016,05,12,14,54,819.00
2016,05,12,14,55,818.10
2016,05,12,14,56,818.10
2016,05,12,14,57,817.00
2016,05,12,14,58,816.00
2016,05,12,14,59,815.90
2016,05,12,15,00,814.00
2016,05,12,15,01,812.60
2016,05,12,15,02,809.00
2016,05,12,15,03,809.00
2016,05,12,15,04,809.00
2016,05,12,15,05,807.40
2016,05,12,15,06,805.10
2016,05,12,15,07,802.80
2016,05,12,15,08,802.00
2016,05,12,15,09,801.10
2016,05,12,15,10,800.00
2016,05,12,15,11,801.30
2016,05,12,15,12,798.90
2016,05,12,15,13,795.30
2016,05,12,15,14,794.70
2016,05,12,15,15,792.50
2016,05,12,15,16,791.00
2016,05,12,15,17,790.00
2016,05,12,15,18,790.40
2016,05,12,15,19,788.50
2016,05,12,15,20,787.90
2016,05,12,15,21,785.30
2016,05,12,15,22,781.40
2016,05,12,15,23,779.50
2016,05,12,15,24,779.60
2016,05,12,15,25,779.30
2016,05,12,15,26,777.50
2016,05,12,15,27,773.50
2016,05,12,15,28,774.70
2016,05,12,15,29,773.00
2016,05,12,15,30,773.00
2016,05,12,15,31,771.40
2016,05,12,15,32,767.30
2016,05,12,15,33,766.00
2016,05,12,15,34,765.80
2016,05,12,15,35,761.00
2016,05,12,15,36,761.00
2016,05,12,15,37,760.10
2016,05,12,15,38,759.00
2016,05,12,15,39,758.30
2016,05,12,15,40,756.40
2016,05,12,15,41,755.90
2016,05,12,15,42,753.40
2016,05,12,15,43,749.40
2016,05,12,15,44,747.60
2016,05,12,15,45,748.70
2016,05,12,15,46,747.00
2016,05,12,15,47,747.00
2016,05,12,15,48,747.00
2016,05,12,15,49,745.90
2016,05,12,15,50,739.40
2016,05,12,15,51,737.60
2016,05,12,15,52,735.90
2016,05,12,15,53,733.70
2016,05,12,15,54,731.50
2016,05,12,15,55,728.00
2016,05,12,15,56,725.30
2016,05,12,15,57,721.70
2016,05,12,15,58,722.30
2016,05,12,15,59,722.40
2016,05,12,16,00,718.50
2016,05,12,16,01,717.00
2016,05,12,16,02,715.00
2016,05,12,16,03,712.00
2016,05,12,16,04,711.40
2016,05,12,16,05,707.90
2016,05,12,16,06,705.00
2016,05,12,16,07,703.70
2016,05,12,16,08,701.40
2016,05,12,16,09,701.00
2016,05,12,16,10,700.00
2016,05,12,16,11,696.00
2016,05,12,16,12,694.60
2016,05,12,16,13,691.90
2016,05,12,16,14,689.70
2016,05,12,16,15,689.00
2016,05,12,16,16,686.10
2016,05,12,16,17,685.40
2016,05,12,16,18,682.00
2016,05,12,16,19,681.10
2016,05,12,16,20,678.40
2016,05,12,16,21,677.00
2016,05,12,16,22,677.00
2016,05,12,16,23,670.60
2016,05,12,16,24,669.60
2016,05,12,16,25,667.40
2016,05,12,16,26,665.20
2016,05,12,16,27,664.00
2016,05,12,16,28,662.00
2016,05,12,16,29,661.00
2016,05,12,16,30,656.40
2016,05,12,16,31,654.00
2016,05,12,16,32,653.40
2016,05,12,16,33,651.10
2016,05,12,16,34,649.50
2016,05,12,16,35,647.70
2016,05,12,16,36,643.90
2016,05,12,16,37,642.00
2016,05,12,16,38,639.70
2016,05,12,16,39,637.40
2016,05,12,16,40,635.60
2016,05,12,16,41,633.90
2016,05,12,16,42,630.40
2016,05,12,16,43,630.60
2016,05,12,16,44,628.00
2016,05,12,16,45,625.70
2016,05,12,16,46,623.40
2016,05,12,16,47,621.60
2016,05,12,16,48,618.80
2016,05,12,16,49,615.70
2016,05,12,16,50,611.20
2016,05,12,16,51,609.80
2016,05,12,16,52,606.30
2016,05,12,16,53,606.40
2016,05,12,16,54,602.10
2016,05,12,16,55,600.00
2016,05,12,16,56,598.30
2016,05,12,16,57,596.40
2016,05,12,16,58,594.10
2016,05,12,16,59,591.80
2016,05,12,17,00,589.70
2016,05,12,17,01,585.90
2016,05,12,17,02,582.90
2016,05,12,17,03,582.00
2016,05,12,17,04,580.40
2016,05,12,17,05,578.10
2016,05,12,17,06,577.50
2016,05,12,17,07,574.40
2016,05,12,17,08,571.80
2016,05,12,17,09,568.90